Cortland, IL

8:51 AM CST on February 24, 2017 (GMT -0600)
De Kalb Taylor Municipal

Weather History for KDKB - December, 2012

Change the Weather History Date:

Friday, December 21, 2012

  Actual Average (KARR) Record (KARR)
Temperature  
Mean Temperature 22 °F -  
Max Temperature 29 °F 29 °F 54 °F (2015)
Min Temperature 14 °F 13 °F -9 °F (2000)
Degree Days  
Heating Degree Days 44    
Moisture  
Dew Point 16 °F    
Average Humidity 80    
Maximum Humidity 86    
Minimum Humidity 74    
Precipitation  
Precipitation 0.00 in - - ()
Sea Level Pressure  
Sea Level Pressure 29.95 in    
Wind  
Wind Speed 23 mph (WNW)    
Max Wind Speed 32 mph    
Max Gust Speed 45 mph    
Visibility 10 miles    
Events      
Averages and records for this station are not official NWS values.
T = Trace of Precipitation, MM = Missing Value Source: NWS Daily Summary

Daily Weather History Graph

Daily Weather History Graph

Search for Another Location

Airport or City:

Trip Planner

Search our weather history database for the weather conditions in past years. The results will help you decide how hot, cold, wet, or windy it might be!

Date:

Astronomy

Dec. 21, 2012 Rise Set
Actual Time 7:19 AM CST 4:26 PM CST
Civil Twilight 6:47 AM CST 4:58 PM CST
Nautical Twilight 6:12 AM CST 5:33 PM CST
Astronomical Twilight 5:38 AM CST 6:07 PM CST
Moon 12:17 PM CST (12/21) 1:02 AM CST (12/21)
Length of Visible Light 10h 10m
Length of Day
9h 07m
Waxing Gibbous, 65% of the Moon is Illuminated
Dec 21
Waxing Gibbous
Dec 28
Full
Jan 4
Last Quarter
Jan 11
New
Jan 18
First Quarter

Hourly Weather History & Observations

Time (CST) Temp. Windchill Dew Point Humidity Pressure Visibility Wind Dir Wind Speed Gust Speed Precip Events Conditions
12:15 AM 29.1 °F 14.8 °F 25.3 °F 86% 29.54 in 7.0 mi WNW 25.3 mph 38.0 mph N/A   Overcast
12:35 AM 28.8 °F 13.0 °F 24.8 °F 85% 29.56 in 7.0 mi WNW 31.1 mph 40.3 mph N/A   Overcast
12:55 AM 28.4 °F 13.5 °F 24.4 °F 85% 29.58 in 10.0 mi WNW 26.5 mph 35.7 mph N/A   Overcast
1:15 AM 28.2 °F 13.3 °F 23.9 °F 84% 29.60 in 10.0 mi WNW 26.5 mph 38.0 mph N/A   Overcast
1:35 AM 27.9 °F 11.8 °F 23.5 °F 84% 29.62 in 10.0 mi WNW 31.1 mph 41.4 mph N/A   Overcast
1:55 AM 27.0 °F 11.0 °F 22.6 °F 84% 29.63 in 10.0 mi WNW 28.8 mph 44.9 mph N/A   Overcast
2:15 AM 26.6 °F 10.3 °F 22.1 °F 83% 29.65 in 10.0 mi WNW 29.9 mph 38.0 mph N/A   Overcast
2:35 AM 26.1 °F 9.6 °F 21.6 °F 83% 29.67 in 10.0 mi WNW 29.9 mph 42.6 mph N/A   Overcast
2:55 AM 25.7 °F 10.8 °F 21.2 °F 83% 29.68 in 10.0 mi WNW 23.0 mph 41.4 mph N/A   Overcast
3:15 AM 25.3 °F 8.9 °F 20.7 °F 82% 29.70 in 10.0 mi WNW 28.8 mph 38.0 mph N/A   Overcast
3:35 AM 24.8 °F 7.6 °F 20.3 °F 83% 29.71 in 10.0 mi WNW 31.1 mph 38.0 mph N/A   Mostly Cloudy
3:55 AM 24.4 °F 6.8 °F 19.9 °F 83% 29.72 in 10.0 mi WNW 32.2 mph 39.1 mph N/A   Mostly Cloudy
4:15 AM 23.9 °F 6.6 °F 19.4 °F 83% 29.73 in 10.0 mi WNW 29.9 mph 39.1 mph N/A   Mostly Cloudy
4:35 AM 23.7 °F 6.9 °F 19.2 °F 83% 29.75 in 10.0 mi WNW 27.6 mph 35.7 mph N/A   Mostly Cloudy
4:55 AM 23.2 °F 5.9 °F 18.7 °F 83% 29.76 in 10.0 mi WNW 28.8 mph 35.7 mph N/A   Overcast
5:15 AM 22.8 °F 6.3 °F 18.3 °F 83% 29.77 in 10.0 mi WNW 25.3 mph 36.8 mph N/A   Overcast
5:35 AM 22.5 °F 6.5 °F 17.8 °F 82% 29.79 in 10.0 mi WNW 23.0 mph 33.4 mph N/A   Mostly Cloudy
5:55 AM 22.1 °F 5.7 °F 17.4 °F 82% 29.80 in 10.0 mi WNW 24.2 mph 38.0 mph N/A   Mostly Cloudy
6:15 AM 21.4 °F 5.8 °F 16.7 °F 82% 29.82 in 10.0 mi WNW 20.7 mph 36.8 mph N/A   Mostly Cloudy
6:35 AM 21.0 °F 4.6 °F 16.3 °F 82% 29.83 in 10.0 mi WNW 23.0 mph 31.1 mph N/A   Mostly Cloudy
6:55 AM 20.7 °F 4.1 °F 16.0 °F 82% 29.85 in 10.0 mi WNW 23.0 mph 27.6 mph N/A   Overcast
7:15 AM 20.3 °F 4.4 °F 15.6 °F 82% 29.86 in 10.0 mi WNW 20.7 mph 28.8 mph N/A   Mostly Cloudy
7:35 AM 19.9 °F 3.5 °F 15.4 °F 83% 29.87 in 10.0 mi WNW 21.9 mph 28.8 mph N/A   Mostly Cloudy
7:55 AM 19.8 °F 2.2 °F 15.3 °F 83% 29.89 in 10.0 mi WNW 25.3 mph 32.2 mph N/A   Mostly Cloudy
8:15 AM 19.4 °F 2.8 °F 14.7 °F 82% 29.89 in 10.0 mi WNW 21.9 mph 28.8 mph N/A   Overcast
8:35 AM 19.0 °F 3.6 °F 14.4 °F 82% 29.91 in 10.0 mi NW 18.4 mph 26.5 mph N/A   Scattered Clouds
8:55 AM 19.2 °F 2.6 °F 14.4 °F 81% 29.92 in 10.0 mi NW 21.9 mph 31.1 mph N/A   Scattered Clouds
9:15 AM 19.2 °F 3.4 °F 14.0 °F 80% 29.93 in 10.0 mi NW 19.6 mph 28.8 mph N/A   Scattered Clouds
9:35 AM 19.6 °F 4.3 °F 14.0 °F 79% 29.94 in 10.0 mi NW 18.4 mph 24.2 mph N/A   Clear
9:55 AM 20.1 °F 5.4 °F 14.2 °F 78% 29.94 in 10.0 mi NW 17.3 mph 25.3 mph N/A   Clear
10:15 AM 20.3 °F 4.4 °F 14.2 °F 77% 29.95 in 10.0 mi NW 20.7 mph 28.8 mph N/A   Clear
10:35 AM 20.5 °F 4.6 °F 14.7 °F 78% 29.96 in 10.0 mi NW 20.7 mph 26.5 mph N/A   Clear
10:55 AM 20.7 °F 5.3 °F 14.7 °F 78% 29.96 in 10.0 mi WNW 19.6 mph 28.8 mph N/A   Clear
11:15 AM 20.7 °F 4.9 °F 14.5 °F 77% 29.97 in 10.0 mi NW 20.7 mph 31.1 mph N/A   Clear
11:35 AM 21.0 °F 5.0 °F 14.7 °F 77% 29.97 in 10.0 mi WNW 21.9 mph 31.1 mph N/A   Clear
11:55 AM 21.6 °F 5.7 °F 15.4 °F 77% 29.97 in 10.0 mi WNW 21.9 mph 31.1 mph N/A   Clear
12:15 PM 21.6 °F 5.0 °F 15.1 °F 76% 29.98 in 10.0 mi WNW 24.2 mph 33.4 mph N/A   Clear
12:35 PM 21.9 °F 5.1 °F 15.8 °F 77% 29.98 in 10.0 mi WNW 25.3 mph 33.4 mph N/A   Clear
12:55 PM 22.1 °F 5.1 °F 15.8 °F 77% 29.99 in 10.0 mi WNW 26.5 mph 32.2 mph N/A   Clear
1:15 PM 22.1 °F 6.4 °F 15.8 °F 77% 30.00 in 10.0 mi WNW 21.9 mph 29.9 mph N/A   Clear
1:35 PM 22.6 °F 8.3 °F 16.2 °F 76% 30.00 in 10.0 mi WNW 18.4 mph 24.2 mph N/A   Clear
1:55 PM 22.6 °F 7.9 °F 15.8 °F 75% 30.00 in 10.0 mi WNW 19.6 mph 29.9 mph N/A   Clear
2:15 PM 22.8 °F 8.5 °F 15.6 °F 74% 30.01 in 10.0 mi NW 18.4 mph 24.2 mph N/A   Clear
2:35 PM 22.8 °F 7.4 °F 15.8 °F 74% 30.02 in 10.0 mi NW 21.9 mph 26.5 mph N/A   Clear
2:55 PM 23.0 °F 8.3 °F 15.8 °F 74% 30.03 in 10.0 mi WNW 19.6 mph 26.5 mph N/A   Clear
3:15 PM 22.6 °F 7.5 °F 16.0 °F 76% 30.04 in 10.0 mi WNW 20.7 mph 28.8 mph N/A   Clear
3:35 PM 22.3 °F 7.0 °F 15.6 °F 76% 30.06 in 10.0 mi WNW 20.7 mph 26.5 mph N/A   Clear
3:55 PM 22.1 °F 7.2 °F 14.9 °F 74% 30.07 in 10.0 mi WNW 19.6 mph 26.5 mph N/A   Clear
4:15 PM 21.2 °F 7.3 °F 14.9 °F 77% 30.08 in 10.0 mi NW 16.1 mph 23.0 mph N/A   Clear
4:35 PM 20.1 °F 6.4 °F 14.0 °F 77% 30.09 in 10.0 mi WNW 15.0 mph 20.7 mph N/A   Clear
4:55 PM 19.4 °F 5.5 °F 14.0 °F 80% 30.11 in 10.0 mi WNW 15.0 mph - N/A   Clear
5:15 PM 19.4 °F 5.0 °F 13.8 °F 79% 30.12 in 10.0 mi WNW 16.1 mph - N/A   Clear
5:35 PM 19.0 °F 5.0 °F 13.6 °F 79% 30.13 in 10.0 mi WNW 15.0 mph - N/A   Clear
5:55 PM 19.0 °F 5.6 °F 13.5 °F 79% 30.13 in 10.0 mi WNW 13.8 mph 18.4 mph N/A   Clear
6:15 PM 18.5 °F 4.9 °F 13.1 °F 79% 30.14 in 10.0 mi WNW 13.8 mph - N/A   Clear
6:35 PM 18.1 °F 5.0 °F 13.1 °F 81% 30.15 in 10.0 mi WNW 12.7 mph - N/A   Clear
6:55 PM 17.6 °F 4.3 °F 12.7 °F 81% 30.14 in 10.0 mi WNW 12.7 mph - N/A   Clear
7:15 PM 17.6 °F 4.3 °F 12.6 °F 81% 30.15 in 10.0 mi WNW 12.7 mph - N/A   Clear
7:35 PM 17.6 °F 3.7 °F 12.2 °F 79% 30.16 in 10.0 mi WNW 13.8 mph - N/A   Clear
7:55 PM 17.2 °F 4.5 °F 12.0 °F 80% 30.16 in 10.0 mi WNW 11.5 mph - N/A   Clear
8:15 PM 17.1 °F 3.6 °F 11.8 °F 80% 30.16 in 10.0 mi WNW 12.7 mph - N/A   Clear
8:35 PM 16.7 °F 5.3 °F 11.3 °F 79% 30.17 in 10.0 mi WNW 9.2 mph - N/A   Clear
8:55 PM 16.5 °F 4.3 °F 11.3 °F 80% 30.17 in 10.0 mi WNW 10.4 mph - N/A   Clear
9:15 PM 16.3 °F 4.9 °F 11.1 °F 80% 30.17 in 10.0 mi WNW 9.2 mph - N/A   Clear
9:35 PM 16.7 °F 7.2 °F 11.1 °F 79% 30.16 in 10.0 mi NW 6.9 mph - N/A   Clear
9:55 PM 16.0 °F 5.3 °F 10.8 °F 80% 30.17 in 10.0 mi WNW 8.1 mph - N/A   Clear
10:15 PM 15.8 °F 4.2 °F 10.8 °F 80% 30.18 in 10.0 mi WNW 9.2 mph - N/A   Clear
10:35 PM 15.6 °F 4.0 °F 10.4 °F 80% 30.17 in 10.0 mi WNW 9.2 mph - N/A   Clear
10:55 PM 15.3 °F 2.8 °F 10.4 °F 81% 30.18 in 10.0 mi WNW 10.4 mph - N/A   Clear
11:15 PM 15.3 °F 4.4 °F 10.0 °F 80% 30.17 in 10.0 mi WNW 8.1 mph - N/A   Clear
11:35 PM 14.5 °F 2.7 °F 9.5 °F 80% 30.18 in 10.0 mi WNW 9.2 mph - N/A   Clear
11:55 PM 14.5 °F 3.6 °F 9.5 °F 80% 30.18 in 10.0 mi WNW 8.1 mph - N/A   Clear